QPF
0.00 0.00 0.00 0.02 0.17 0.06 0.00 0.02 0.01 0.01 0.00 0.00 0.00 0.00 0.00 0.00 0.00 0.00 0.00 0.00 0.00 0.02 0.00 0.00 0.05 0.04 0.07 0.02 0.00 0.01 0.04 0.00 0.03 0.03 0.00 0.00 0.00 0.00 0.00 0.00 0.00 0.00 0.00 0.00 0.00 0.01 0.03 0.00 0.00
0.00 0.00 0.02 0.06 0.15 0.00 0.01 0.00 0.00 0.01 0.00 0.00 0.00 0.00 0.00 0.00 0.00 0.00 0.00 0.00 0.01 0.00 0.00 0.00 0.02 0.03 0.07 0.03 0.03 0.05 0.04 0.01 0.03 0.05 0.08 0.02 0.00 0.00 0.00 0.00 0.00 0.00 0.00 0.00 0.00 0.01 0.00 0.01 0.07
0.00 0.01 0.05 0.14 0.01 0.00 0.01 0.00 0.00 0.00 0.00 0.00 0.00 0.00 0.00 0.00 0.00 0.00 0.00 0.00 0.01 0.00 0.00 0.00 0.00 0.02 0.04 0.02 0.04 0.05 0.01 0.00 0.00 0.04 0.03 0.01 0.00 0.00 0.01 0.00 0.00 0.00 0.00 0.00 0.01 0.03 0.01 0.04 0.11
0.00 0.07 0.02 0.01 0.00 0.00 0.00 0.00 0.00 0.00 0.02 0.02 0.00 0.00 0.00 0.00 0.00 0.00 0.00 0.00 0.00 0.00 0.00 0.00 0.00 0.00 0.00 0.00 0.01 0.00 0.05 0.01 0.00 0.00 0.00 0.00 0.00 0.00 0.00 0.00 0.00 0.00 0.01 0.01 0.02 0.00 0.02 0.04 0.02
0.02 0.08 0.08 0.00 0.00 0.00 0.00 0.00 0.00 0.00 0.03 0.02 0.02 0.00 0.00 0.00 0.00 0.00 0.00 0.00 0.00 0.00 0.00 0.00 0.00 0.00 0.00 0.01 0.01 0.01 0.10 0.07 0.02 0.01 0.00 0.01 0.03 0.01 0.01 0.01 0.00 0.01 0.01 0.02 0.03 0.01 0.01 0.00 0.00
0.08 0.02 0.00 0.00 0.00 0.00 0.00 0.00 0.00 0.01 0.02 0.03 0.01 0.00 0.00 0.00 0.00 0.00 0.00 0.00 0.00 0.00 0.00 0.00 0.00 0.00 0.01 0.02 0.02 0.02 0.03 0.11 0.08 0.07 0.07 0.02 0.02 0.00 0.00 0.00 0.00 0.00 0.00 0.00 0.00 0.00 0.00 0.00 0.00
0.02 0.00 0.00 0.00 0.00 0.00 0.00 0.00 0.01 0.00 0.00 0.02 0.01 0.00 0.00 0.00 0.00 0.00 0.00 0.00 0.00 0.00 0.00 0.00 0.00 0.00 0.00 0.00 0.00 0.00 0.02 0.07 0.07 0.03 0.05 0.01 0.00 0.00 0.00 0.00 0.00 0.00 0.00 0.00 0.00 0.00 0.00 0.00 0.00
0.00 0.00 0.00 0.00 0.00 0.00 0.00 0.00 0.00 0.00 0.00 0.00 0.00 0.01 0.00 0.00 0.00 0.00 0.00 0.00 0.00 0.02 0.00 0.00 0.00 0.00 0.00 0.00 0.00 0.00 0.00 0.00 0.00 0.00 0.00 0.00 0.01 0.02 0.09 0.03 0.00 0.00 0.00 0.00 0.00 0.00 0.00 0.00 0.00
0.00 0.00 0.00 0.00 0.00 0.00 0.00 0.00 0.00 0.00 0.00 0.00 0.00 0.01 0.00 0.00 0.00 0.00 0.00 0.00 0.00 0.01 0.00 0.00 0.00 0.00 0.00 0.00 0.00 0.00 0.00 0.00 0.00 0.00 0.00 0.00 0.01 0.02 0.04 0.01 0.00 0.00 0.00 0.00 0.00 0.00 0.00 0.00 0.00
0.00 0.00 0.00 0.00 0.00 0.00 0.00 0.00 0.00 0.00 0.00 0.00 0.00 0.00 0.00 0.00 0.00 0.00 0.00 0.00 0.00 0.00 0.00 0.00 0.00 0.00 0.00 0.00 0.00 0.00 0.00 0.00 0.00 0.03 0.01 0.02 0.09 0.08 0.01 0.00 0.02 0.03 0.00 0.00 0.00 0.00 0.00 0.00 0.01
0.00 0.00 0.00 0.00 0.00 0.00 0.00 0.00 0.00 0.00 0.00 0.00 0.00 0.00 0.00 0.00 0.00 0.00 0.00 0.00 0.00 0.00 0.00 0.01 0.01 0.00 0.00 0.00 0.00 0.00 0.00 0.00 0.01 0.02 0.02 0.01 0.02 0.00 0.00 0.00 0.00 0.01 0.00 0.00 0.00 0.00 0.00 0.00 0.00
0.00 0.00 0.00 0.00 0.00 0.00 0.00 0.00 0.00 0.00 0.00 0.00 0.00 0.00 0.00 0.00 0.00 0.00 0.00 0.00 0.00 0.00 0.00 0.04 0.00 0.01 0.00 0.00 0.00 0.00 0.01 0.00 0.01 0.00 0.00 0.01 0.00 0.00 0.01 0.03 0.02 0.00 0.00 0.00 0.00 0.00 0.00 0.00 0.00
0.02 0.00 0.00 0.00 0.00 0.00 0.00 0.00 0.00 0.00 0.00 0.00 0.00 0.00 0.00 0.00 0.00 0.00 0.00 0.00 0.00 0.00 0.00 0.03 0.00 0.00 0.00 0.00 0.00 0.00 0.00 0.00 0.00 0.00 0.00 0.00 0.01 0.04 0.08 0.07 0.08 0.03 0.01 0.02 0.02 0.02 0.00 0.01 0.01
0.01 0.00 0.00 0.00 0.00 0.00 0.00 0.00 0.01 0.00 0.00 0.00 0.00 0.00 0.00 0.00 0.00 0.00 0.00 0.00 0.00 0.00 0.00 0.00 0.00 0.00 0.00 0.00 0.01 0.00 0.00 0.00 0.00 0.00 0.01 0.04 0.03 0.00 0.00 0.01 0.02 0.12 0.04 0.01 0.01 0.01 0.00 0.00 0.00
0.00 0.00 0.00 0.00 0.00 0.00 0.01 0.01 0.02 0.00 0.00 0.00 0.00 0.00 0.00 0.00 0.00 0.00 0.00 0.00 0.00 0.00 0.00 0.00 0.00 0.00 0.00 0.00 0.00 0.00 0.00 0.00 0.00 0.01 0.08 0.04 0.00 0.01 0.01 0.07 0.02 0.01 0.00 0.00 0.00 0.00 0.00 0.00 0.00
0.00 0.02 0.04 0.02 0.00 0.00 0.01 0.06 0.02 0.00 0.00 0.00 0.00 0.00 0.00 0.00 0.00 0.00 0.00 0.00 0.00 0.00 0.00 0.00 0.00 0.00 0.00 0.00 0.00 0.00 0.00 0.00 0.00 0.01 0.05 0.02 0.00 0.06 0.09 0.08 0.01 0.00 0.00 0.00 0.02 0.03 0.04 0.02 0.00
0.02 0.01 0.01 0.00 0.00 0.00 0.00 0.04 0.01 0.00 0.00 0.00 0.00 0.00 0.00 0.00 0.00 0.00 0.00 0.00 0.00 0.00 0.00 0.00 0.00 0.00 0.00 0.00 0.00 0.01 0.02 0.04 0.00 0.03 0.02 0.00 0.01 0.04 0.11 0.05 0.00 0.00 0.00 0.00 0.07 0.05 0.04 0.04 0.00
0.03 0.02 0.01 0.00 0.00 0.00 0.00 0.00 0.00 0.00 0.00 0.00 0.00 0.00 0.00 0.00 0.00 0.00 0.00 0.00 0.00 0.00 0.00 0.00 0.00 0.00 0.00 0.03 0.08 0.03 0.06 0.04 0.00 0.00 0.01 0.02 0.00 0.00 0.02 0.04 0.01 0.00 0.01 0.00 0.02 0.02 0.04 0.03 0.06
0.02 0.01 0.00 0.00 0.00 0.00 0.00 0.00 0.00 0.00 0.00 0.00 0.00 0.00 0.00 0.00 0.00 0.00 0.00 0.00 0.00 0.00 0.00 0.00 0.00 0.00 0.00 0.00 0.06 0.06 0.04 0.00 0.00 0.00 0.07 0.07 0.00 0.01 0.02 0.04 0.02 0.01 0.02 0.04 0.06 0.04 0.07 0.07 0.04
0.00 0.00 0.00 0.00 0.00 0.00 0.00 0.00 0.00 0.00 0.00 0.00 0.00 0.00 0.00 0.00 0.00 0.00 0.00 0.00 0.00 0.00 0.00 0.00 0.00 0.00 0.00 0.00 0.01 0.05 0.03 0.02 0.01 0.01 0.04 0.02 0.00 0.02 0.04 0.08 0.07 0.10 0.11 0.13 0.12 0.12 0.09 0.09 0.06
0.00 0.00 0.00 0.00 0.00 0.00 0.00 0.00 0.00 0.01 0.02 0.00 0.00 0.00 0.00 0.00 0.00 0.00 0.00 0.00 0.00 0.00 0.00 0.00 0.00 0.00 0.00 0.00 0.00 0.05 0.12 0.09 0.04 0.06 0.03 0.01 0.00 0.00 0.04 0.06 0.09 0.12 0.16 0.11 0.14 0.14 0.13 0.06 0.07
0.00 0.00 0.00 0.00 0.00 0.00 0.00 0.00 0.00 0.00 0.03 0.00 0.00 0.00 0.00 0.00 0.00 0.00 0.00 0.00 0.00 0.00 0.00 0.00 0.00 0.00 0.00 0.00 0.00 0.02 0.03 0.03 0.01 0.00 0.00 0.00 0.00 0.02 0.01 0.01 0.04 0.06 0.08 0.10 0.09 0.06 0.05 0.09 0.06
0.00 0.00 0.00 0.00 0.00 0.00 0.00 0.00 0.00 0.00 0.00 0.00 0.00 0.00 0.00 0.00 0.00 0.00 0.00 0.00 0.00 0.00 0.00 0.00 0.00 0.00 0.00 0.00 0.01 0.00 0.01 0.00 0.00 0.00 0.01 0.00 0.00 0.01 0.04 0.01 0.01 0.06 0.10 0.11 0.05 0.03 0.03 0.03 0.02
0.00 0.00 0.00 0.00 0.00 0.00 0.00 0.00 0.00 0.00 0.00 0.00 0.02 0.00 0.00 0.00 0.00 0.00 0.00 0.00 0.00 0.00 0.00 0.00 0.00 0.00 0.00 0.00 0.00 0.00 0.02 0.04 0.02 0.04 0.01 0.00 0.00 0.01 0.02 0.01 0.01 0.01 0.04 0.03 0.00 0.00 0.00 0.00 0.00
0.00 0.00 0.00 0.00 0.00 0.00 0.00 0.00 0.00 0.00 0.00 0.00 0.00 0.00 0.00 0.00 0.00 0.00 0.00 0.00 0.00 0.00 0.00 0.00 0.00 0.00 0.00 0.00 0.00 0.00 0.01 0.04 0.04 0.02 0.00 0.00 0.00 0.00 0.03 0.01 0.00 0.00 0.00 0.00 0.00 0.00 0.00 0.00 0.00
0.00 0.00 0.00 0.00 0.00 0.00 0.00 0.00 0.00 0.00 0.00 0.00 0.00 0.00 0.00 0.00 0.00 0.00 0.00 0.00 0.00 0.00 0.00 0.00 0.00 0.00 0.00 0.00 0.00 0.00 0.00 0.00 0.01 0.00 0.00 0.00 0.00 0.00 0.02 0.00 0.00 0.00 0.00 0.00 0.00 0.00 0.00 0.00 0.00
0.00 0.00 0.00 0.00 0.00 0.00 0.00 0.00 0.00 0.00 0.00 0.00 0.00 0.00 0.00 0.00 0.00 0.00 0.00 0.00 0.00 0.00 0.00 0.00 0.00 0.00 0.00 0.00 0.00 0.00 0.00 0.02 0.03 0.03 0.01 0.00 0.00 0.00 0.01 0.00 0.00 0.00 0.00 0.00 0.00 0.00 0.00 0.00 0.00
0.00 0.00 0.00 0.00 0.00 0.00 0.00 0.00 0.00 0.00 0.00 0.00 0.00 0.00 0.00 0.00 0.00 0.00 0.00 0.00 0.00 0.00 0.00 0.00 0.00 0.00 0.00 0.00 0.00 0.00 0.00 0.01 0.05 0.02 0.03 0.03 0.02 0.00 0.00 0.00 0.00 0.00 0.00 0.00 0.00 0.00 0.00 0.00 0.00
0.00 0.00 0.00 0.00 0.00 0.00 0.00 0.00 0.00 0.00 0.00 0.00 0.00 0.00 0.00 0.00 0.00 0.00 0.00 0.00 0.00 0.00 0.00 0.00 0.00 0.00 0.00 0.00 0.00 0.00 0.00 0.00 0.01 0.00 0.02 0.04 0.01 0.00 0.00 0.00 0.00 0.00 0.00 0.00 0.00 0.00 0.00 0.00 0.00
0.00 0.00 0.00 0.00 0.00 0.00 0.00 0.00 0.00 0.00 0.00 0.00 0.00 0.00 0.00 0.00 0.00 0.00 0.00 0.00 0.00 0.00 0.00 0.00 0.00 0.00 0.00 0.00 0.00 0.00 0.00 0.00 0.00 0.00 0.01 0.01 0.00 0.00 0.00 0.00 0.00 0.00 0.00 0.00 0.00 0.00 0.00 0.00 0.00
MSLP
1006.81 1006.95 1006.92 1006.56 1006.63 1004.78 1004.63 1005.74 1005.14 1005.93 1006.35 1007.31 1008.44 1008.56 1008.93 1009.94 1011.10 1013.26 1013.65 1013.81 1013.68 1013.73 1013.57 1013.79 1013.99 1013.80 1013.95 1014.33 1014.62 1014.75 1014.82 1014.79 1015.15 1015.24 1015.52 1015.52 1015.84 1015.86 1015.99 1016.07 1016.02 1016.09 1016.14 1016.28 1016.39 1016.42 1016.46 1016.54 1016.68
1005.76 1005.94 1006.18 1005.14 1004.65 1003.86 1004.58 1004.67 1004.81 1005.66 1006.42 1006.96 1007.43 1007.95 1008.54 1009.98 1010.95 1012.77 1013.61 1013.28 1013.27 1012.97 1013.37 1013.88 1014.09 1013.81 1014.25 1014.54 1014.74 1015.03 1014.96 1014.99 1015.09 1015.45 1015.64 1015.75 1015.88 1016.07 1016.14 1016.22 1016.19 1016.27 1016.24 1016.36 1016.44 1016.48 1016.52 1016.68 1016.93
1004.14 1004.01 1004.92 1003.51 1002.47 1003.02 1004.19 1004.15 1004.83 1005.81 1006.37 1006.32 1006.92 1007.77 1007.71 1010.11 1011.30 1012.10 1012.32 1012.64 1013.01 1012.55 1013.01 1013.83 1014.01 1014.13 1014.49 1014.60 1014.89 1015.23 1015.19 1015.34 1015.30 1015.60 1015.60 1015.84 1016.02 1016.16 1016.18 1016.26 1016.34 1016.36 1016.39 1016.50 1016.62 1016.59 1016.73 1016.93 1017.21
1003.89 1003.41 1003.44 1002.00 1001.96 1001.96 1002.54 1003.65 1004.19 1004.98 1005.36 1005.27 1005.92 1007.47 1008.84 1009.91 1010.81 1011.27 1011.94 1011.89 1012.09 1012.58 1013.12 1013.73 1014.00 1014.30 1014.58 1014.75 1015.10 1015.19 1015.33 1015.52 1015.59 1015.73 1015.83 1015.93 1016.14 1016.22 1016.31 1016.29 1016.42 1016.48 1016.53 1016.57 1016.70 1016.76 1016.94 1017.15 1017.37
1003.45 1001.99 1001.02 1000.95 1001.45 1001.54 1001.82 1002.82 1003.33 1004.06 1005.18 1005.66 1005.88 1007.68 1009.10 1010.19 1010.05 1010.66 1010.76 1010.82 1011.30 1012.57 1013.24 1013.51 1014.17 1014.43 1014.78 1014.97 1015.21 1015.33 1015.61 1015.69 1015.79 1015.86 1016.08 1016.11 1016.26 1016.34 1016.38 1016.40 1016.48 1016.50 1016.67 1016.81 1016.84 1016.97 1017.10 1017.32 1017.49
1004.89 1001.44 999.45 1000.09 1000.87 1001.20 1001.28 1001.67 1002.23 1003.09 1004.45 1004.83 1005.66 1007.37 1008.92 1009.05 1009.84 1010.14 1010.20 1010.50 1011.28 1011.94 1012.50 1013.45 1014.21 1014.44 1014.64 1014.99 1015.37 1015.51 1015.56 1015.80 1015.91 1016.02 1016.12 1016.21 1016.27 1016.38 1016.46 1016.47 1016.54 1016.70 1016.70 1016.77 1016.93 1017.08 1017.29 1017.43 1017.51
1003.74 1000.40 998.80 999.67 1000.62 1001.24 1001.17 1003.06 1002.12 1002.36 1002.83 1004.67 1005.18 1006.77 1008.48 1009.29 1009.69 1009.88 1009.96 1010.37 1010.89 1011.78 1012.52 1013.14 1013.89 1014.28 1014.66 1015.13 1015.40 1015.61 1015.75 1015.94 1016.01 1016.05 1016.08 1016.09 1016.24 1016.34 1016.44 1016.52 1016.62 1016.68 1016.72 1016.73 1016.93 1017.08 1017.34 1017.46 1017.56
999.51 997.90 998.36 999.07 1000.20 1001.08 1001.11 1000.96 1000.94 1001.43 1002.55 1003.55 1004.68 1005.91 1007.41 1008.56 1009.54 1009.93 1010.23 1010.12 1010.72 1011.39 1012.12 1012.58 1013.43 1014.04 1014.64 1015.08 1015.34 1015.40 1015.72 1015.88 1015.92 1015.98 1016.06 1016.24 1016.31 1016.40 1016.50 1016.57 1016.69 1016.80 1016.80 1016.83 1016.94 1017.11 1017.36 1017.37 1017.50
996.45 997.36 997.63 998.71 999.74 1000.68 1000.72 1001.05 1001.09 1001.58 1002.44 1002.87 1004.01 1004.94 1006.48 1007.85 1008.92 1009.48 1009.86 1010.31 1011.33 1011.63 1011.26 1011.69 1012.83 1013.63 1014.07 1014.56 1014.96 1015.25 1015.45 1015.72 1015.77 1015.89 1016.15 1016.21 1016.26 1016.49 1016.42 1016.39 1016.49 1016.70 1016.85 1016.93 1016.95 1017.06 1017.27 1017.33 1017.53
996.16 997.37 997.85 998.32 999.45 1000.05 1000.39 1000.90 1001.48 1001.74 1002.09 1002.78 1003.43 1004.74 1006.47 1007.55 1008.40 1009.08 1009.76 1010.46 1011.15 1011.59 1011.44 1011.57 1012.00 1012.51 1013.18 1013.58 1014.61 1014.81 1015.10 1015.36 1015.52 1015.53 1015.86 1015.82 1016.33 1016.34 1016.29 1016.17 1016.54 1016.59 1016.80 1017.01 1017.10 1017.16 1017.20 1017.25 1017.31
997.69 997.48 998.30 998.67 999.40 999.79 1000.24 1000.81 1001.29 1001.25 1001.46 1002.18 1003.09 1004.66 1006.16 1007.21 1007.99 1008.68 1009.34 1010.12 1010.68 1011.19 1011.58 1011.69 1012.01 1012.22 1012.97 1013.63 1014.00 1014.25 1014.53 1014.98 1015.12 1015.22 1015.28 1015.18 1015.68 1015.98 1016.02 1016.30 1016.43 1016.66 1016.77 1016.83 1017.00 1017.15 1017.19 1017.39 1017.47
1000.35 997.88 998.46 998.94 999.46 999.87 999.86 1000.07 1000.37 1001.15 1000.93 1001.77 1003.12 1004.37 1005.56 1006.46 1007.00 1007.45 1008.11 1008.98 1009.80 1010.46 1010.84 1011.44 1011.91 1013.30 1012.54 1013.00 1013.22 1014.04 1014.38 1014.58 1014.83 1014.64 1014.85 1015.06 1015.11 1015.49 1015.84 1016.13 1016.18 1016.27 1016.33 1016.30 1016.50 1016.58 1016.61 1017.03 1017.04
1000.60 998.70 998.90 999.25 999.41 999.69 1000.04 1000.05 1000.44 1000.93 1001.34 1001.96 1003.24 1004.27 1005.02 1005.73 1006.26 1006.76 1007.31 1007.99 1008.90 1009.81 1010.77 1011.61 1011.59 1011.99 1012.42 1013.08 1013.61 1013.96 1014.40 1014.29 1014.23 1014.46 1014.61 1014.82 1014.95 1015.62 1015.74 1016.02 1016.11 1016.02 1016.08 1016.28 1016.32 1016.65 1016.63 1016.91 1016.67
999.50 999.41 999.66 999.78 999.40 999.55 1000.13 1000.89 1000.77 1000.84 1001.33 1001.89 1002.94 1004.10 1004.65 1005.23 1005.65 1006.20 1006.75 1007.37 1008.29 1009.27 1009.85 1010.72 1011.00 1011.81 1012.23 1013.15 1013.64 1013.69 1013.95 1013.90 1014.22 1014.26 1014.34 1014.60 1015.09 1015.40 1015.68 1015.88 1015.95 1016.50 1016.09 1016.41 1016.24 1016.41 1016.52 1016.99 1016.99
1001.05 1001.35 1002.19 1001.00 999.54 1001.75 1001.93 1002.98 1002.52 1000.90 1001.10 1001.76 1002.68 1003.63 1004.21 1004.73 1005.17 1005.68 1006.28 1006.85 1007.72 1008.60 1009.01 1009.68 1010.52 1011.58 1012.33 1012.94 1013.32 1013.37 1013.54 1013.65 1013.78 1013.84 1014.21 1014.42 1014.94 1015.25 1015.52 1015.84 1015.95 1015.82 1016.28 1016.50 1016.41 1016.45 1016.40 1016.88 1016.71
1002.72 1004.50 1005.04 1001.77 1000.20 1002.01 1002.56 1004.98 1002.26 1001.30 1001.06 1001.56 1002.36 1003.14 1003.71 1004.20 1004.63 1005.26 1005.89 1006.39 1007.54 1008.42 1009.04 1009.76 1010.00 1010.97 1012.09 1012.59 1012.97 1013.03 1013.17 1013.41 1013.36 1013.70 1014.27 1014.16 1014.58 1014.94 1015.31 1015.66 1015.76 1015.63 1016.05 1016.38 1016.30 1016.50 1016.48 1016.65 1016.63
1004.24 1005.70 1004.86 1001.63 999.35 999.55 1000.48 1002.41 1001.93 1000.63 1000.85 1001.28 1001.94 1002.57 1003.05 1003.59 1004.09 1004.79 1005.48 1005.98 1006.83 1007.71 1008.75 1009.40 1010.15 1010.57 1011.58 1012.18 1012.42 1012.68 1013.14 1013.49 1013.02 1014.24 1014.00 1013.84 1014.40 1014.74 1015.13 1015.23 1015.54 1015.84 1015.90 1016.12 1016.23 1016.48 1016.60 1016.70 1016.55
1004.34 1006.91 1003.36 1001.77 997.69 997.64 997.63 998.28 999.11 999.66 1000.01 1000.62 1001.35 1001.87 1002.39 1002.91 1003.52 1004.24 1005.00 1005.72 1006.20 1007.06 1008.11 1008.98 1009.77 1010.47 1011.29 1012.09 1012.93 1013.16 1013.72 1013.56 1013.00 1013.34 1013.51 1013.82 1014.07 1014.49 1014.89 1015.10 1015.31 1015.74 1015.78 1015.83 1015.95 1016.21 1016.24 1016.44 1016.35
1001.42 1001.56 1001.22 998.83 996.49 996.50 996.41 996.53 997.14 998.32 999.17 999.82 1000.30 1001.02 1001.59 1002.19 1002.87 1003.61 1004.59 1005.34 1005.71 1006.62 1007.68 1008.76 1009.56 1010.50 1011.31 1012.45 1013.57 1013.52 1013.36 1013.36 1013.44 1013.48 1013.33 1013.97 1014.06 1014.28 1014.62 1015.01 1015.18 1015.13 1015.53 1015.69 1015.96 1016.09 1016.10 1016.19 1016.08
998.51 998.32 997.39 995.53 995.56 995.28 995.18 995.51 996.31 997.54 998.26 998.82 999.53 1000.02 1000.58 1001.38 1002.04 1003.01 1004.04 1004.68 1005.57 1006.35 1007.35 1008.32 1009.14 1010.12 1010.81 1012.11 1012.10 1012.75 1013.19 1012.82 1013.02 1013.08 1013.50 1013.70 1014.00 1014.33 1014.66 1014.89 1015.25 1015.37 1015.50 1015.70 1015.86 1016.01 1016.24 1016.24 1016.04
995.39 995.34 995.01 994.70 994.70 994.42 994.53 995.46 996.67 998.00 998.17 998.47 998.77 999.33 999.90 1000.43 1001.18 1002.38 1003.33 1004.16 1005.03 1006.03 1007.00 1007.99 1008.92 1009.66 1010.34 1011.09 1011.73 1012.49 1013.53 1012.92 1013.34 1013.57 1013.97 1014.16 1014.30 1014.45 1014.59 1014.66 1014.96 1015.36 1015.37 1015.75 1015.82 1016.10 1016.27 1016.17 1016.18
994.60 994.42 994.33 994.53 994.72 994.22 994.17 994.58 997.00 998.06 999.52 998.59 998.55 998.30 999.16 999.84 1000.37 1001.50 1002.70 1003.61 1004.50 1005.59 1006.71 1007.56 1008.46 1009.27 1010.02 1010.89 1011.45 1012.24 1012.85 1013.00 1013.01 1013.33 1013.67 1014.14 1014.23 1014.27 1014.42 1014.58 1014.75 1015.04 1015.31 1015.73 1015.78 1015.88 1016.08 1016.14 1016.17
994.60 994.59 994.58 994.46 994.55 994.52 994.44 994.54 995.85 998.67 1000.06 1000.85 998.16 997.72 997.92 998.84 999.70 1000.42 1001.57 1002.70 1003.67 1004.87 1006.11 1007.13 1008.09 1008.88 1009.60 1010.39 1010.92 1011.55 1011.94 1012.18 1012.52 1013.01 1013.64 1014.15 1014.14 1014.04 1014.43 1014.39 1014.40 1015.01 1015.33 1015.61 1015.67 1015.85 1016.00 1016.06 1015.95
995.06 995.02 994.89 994.84 994.67 994.62 994.49 994.34 994.58 996.34 997.05 998.09 998.18 997.92 996.69 997.22 998.41 999.42 1000.51 1001.68 1002.82 1003.88 1005.24 1006.38 1007.54 1008.40 1009.23 1009.94 1010.38 1010.88 1011.42 1012.01 1012.18 1012.71 1013.37 1013.72 1013.86 1014.16 1014.10 1014.13 1014.38 1014.61 1015.11 1015.29 1015.59 1015.89 1016.19 1016.30 1016.11
995.17 995.02 994.85 994.91 994.61 994.05 993.65 993.35 993.21 995.02 995.03 996.58 996.31 996.12 995.77 996.03 997.37 998.58 999.59 1000.55 1001.86 1002.87 1004.18 1005.42 1006.79 1007.87 1008.72 1009.52 1010.12 1010.45 1010.87 1011.54 1011.96 1012.35 1012.75 1012.90 1013.32 1013.66 1014.11 1014.40 1014.69 1014.96 1015.09 1015.26 1015.44 1015.79 1016.06 1016.31 1016.36
995.04 995.02 994.82 994.59 994.37 993.69 992.93 992.49 993.23 994.42 994.95 994.68 993.97 994.46 994.08 994.69 995.88 997.26 998.35 999.60 1000.92 1002.01 1003.24 1004.49 1006.00 1007.22 1008.18 1008.91 1009.61 1010.16 1010.59 1011.01 1011.52 1011.84 1012.08 1012.45 1012.92 1013.38 1013.88 1014.32 1014.53 1014.87 1015.18 1015.44 1015.70 1016.14 1016.27 1016.45 1016.62
995.33 995.24 995.05 994.61 994.23 993.77 993.20 992.33 992.68 993.37 993.95 996.87 992.69 992.74 992.90 993.49 994.34 996.25 997.68 998.84 1000.05 1001.17 1002.49 1003.63 1005.24 1006.49 1007.45 1008.28 1009.09 1009.84 1010.26 1010.65 1010.84 1011.38 1011.80 1012.27 1012.81 1013.42 1013.86 1014.27 1014.63 1015.06 1015.37 1015.56 1015.90 1016.27 1016.64 1016.81 1016.72
995.66 995.67 995.30 994.84 994.67 994.22 993.69 992.90 992.25 993.38 994.04 992.77 991.85 991.89 992.49 993.13 993.65 995.22 996.68 998.03 999.30 1000.41 1001.79 1003.12 1004.42 1005.69 1006.68 1007.72 1008.47 1009.06 1009.57 1010.18 1010.68 1011.18 1011.68 1012.12 1012.78 1013.21 1013.88 1014.50 1014.88 1015.21 1015.61 1015.88 1016.08 1016.32 1016.70 1017.11 1017.20
995.07 995.38 995.59 995.56 994.93 994.06 993.47 992.61 991.72 992.44 992.98 992.23 991.46 992.08 992.43 993.02 993.62 994.54 995.85 997.19 998.66 999.85 1000.97 1002.45 1003.88 1005.15 1006.24 1007.19 1007.75 1008.37 1008.99 1009.71 1010.37 1011.00 1011.60 1012.20 1012.80 1013.36 1014.07 1014.65 1015.19 1015.48 1015.67 1015.89 1016.34 1016.56 1016.95 1017.29 1017.55
994.74 995.05 994.92 994.59 995.00 994.74 994.12 992.83 991.80 992.17 991.72 991.87 992.10 992.72 993.08 993.41 993.53 994.46 995.41 996.72 998.11 999.35 1000.34 1001.63 1003.26 1004.54 1005.54 1006.29 1007.04 1007.75 1008.47 1009.20 1009.92 1010.56 1011.37 1012.18 1013.06 1013.80 1014.31 1014.88 1015.27 1015.54 1015.82 1015.99 1016.39 1016.56 1017.09 1017.50 1017.76
Thickness
5819 5816 5813 5804 5770 5787 5774 5760 5787 5770 5770 5776 5766 5760 5762 5759 5746 5723 5751 5755 5760 5759 5761 5762 5762 5767 5764 5763 5762 5762 5764 5768 5763 5763 5761 5762 5756 5757 5755 5755 5757 5757 5757 5756 5754 5752 5751 5751 5750
5830 5826 5815 5803 5773 5773 5765 5786 5778 5778 5779 5783 5778 5772 5766 5751 5760 5748 5747 5759 5761 5765 5761 5760 5763 5767 5765 5763 5763 5762 5764 5766 5766 5762 5761 5760 5758 5756 5756 5755 5756 5756 5756 5755 5754 5753 5753 5751 5749
5852 5844 5804 5800 5808 5769 5757 5787 5785 5782 5784 5784 5777 5780 5780 5754 5758 5756 5764 5766 5765 5770 5766 5762 5764 5766 5765 5765 5763 5763 5765 5763 5765 5762 5763 5760 5758 5757 5758 5757 5756 5756 5756 5754 5753 5753 5752 5750 5747
5843 5834 5823 5814 5797 5806 5796 5795 5799 5791 5796 5803 5795 5770 5774 5774 5764 5770 5770 5773 5774 5771 5768 5767 5763 5765 5764 5767 5765 5766 5764 5762 5764 5764 5763 5762 5760 5759 5758 5759 5758 5758 5756 5757 5754 5753 5751 5749 5747
5848 5840 5816 5816 5809 5817 5821 5813 5812 5799 5788 5787 5797 5768 5761 5770 5781 5781 5782 5787 5784 5776 5771 5771 5767 5769 5768 5768 5766 5765 5763 5764 5765 5763 5761 5761 5760 5760 5760 5760 5760 5760 5758 5757 5755 5754 5751 5750 5749
5810 5845 5837 5811 5812 5822 5830 5831 5824 5811 5797 5800 5794 5778 5770 5791 5784 5787 5792 5792 5790 5783 5780 5777 5771 5772 5771 5768 5764 5764 5766 5764 5763 5763 5762 5761 5761 5760 5761 5761 5761 5759 5759 5758 5756 5754 5751 5750 5750
5820 5835 5842 5831 5815 5813 5826 5807 5819 5816 5814 5795 5808 5778 5780 5782 5790 5796 5796 5797 5795 5787 5782 5781 5775 5774 5771 5766 5766 5766 5764 5762 5763 5764 5764 5764 5762 5762 5762 5761 5761 5760 5760 5759 5756 5755 5753 5752 5751
5860 5875 5849 5842 5818 5808 5834 5840 5845 5832 5815 5827 5818 5785 5777 5791 5796 5797 5795 5799 5796 5793 5789 5787 5780 5776 5772 5767 5767 5767 5764 5764 5764 5765 5765 5763 5763 5763 5763 5763 5762 5760 5760 5760 5758 5755 5753 5754 5753
5912 5862 5847 5840 5829 5823 5843 5829 5845 5847 5826 5828 5821 5813 5809 5807 5803 5797 5794 5794 5788 5783 5797 5794 5785 5780 5777 5773 5770 5768 5767 5766 5765 5766 5765 5762 5765 5764 5766 5765 5765 5763 5761 5759 5758 5756 5754 5754 5752
5899 5861 5855 5869 5857 5842 5845 5840 5835 5830 5825 5821 5823 5824 5815 5809 5802 5793 5789 5784 5786 5785 5793 5795 5793 5789 5784 5781 5773 5773 5771 5768 5770 5770 5767 5768 5766 5767 5767 5768 5765 5764 5762 5760 5758 5757 5756 5755 5753
5888 5864 5872 5871 5869 5866 5852 5845 5847 5834 5823 5830 5820 5816 5813 5807 5802 5797 5794 5789 5787 5789 5789 5793 5793 5790 5785 5781 5779 5778 5776 5773 5773 5773 5773 5775 5773 5770 5769 5768 5766 5764 5762 5762 5760 5759 5758 5756 5753
5845 5889 5881 5874 5874 5864 5857 5861 5850 5844 5847 5853 5840 5830 5820 5811 5808 5806 5803 5800 5797 5794 5795 5794 5794 5783 5788 5786 5786 5780 5778 5777 5777 5778 5777 5777 5777 5775 5773 5771 5769 5768 5766 5766 5764 5763 5762 5759 5757
5848 5886 5888 5882 5879 5872 5871 5860 5856 5851 5860 5858 5845 5834 5824 5819 5815 5815 5813 5812 5807 5799 5795 5791 5796 5794 5790 5786 5782 5781 5778 5779 5781 5780 5780 5779 5778 5776 5775 5770 5770 5769 5768 5766 5766 5763 5762 5759 5760
5887 5894 5888 5883 5880 5879 5862 5855 5861 5859 5866 5854 5844 5832 5830 5825 5823 5819 5817 5813 5809 5805 5803 5801 5801 5795 5790 5784 5782 5782 5781 5782 5782 5782 5783 5781 5778 5776 5775 5772 5771 5767 5767 5765 5765 5764 5762 5759 5759
5863 5842 5835 5861 5883 5839 5851 5822 5823 5869 5868 5853 5844 5837 5834 5831 5831 5824 5823 5819 5817 5811 5812 5809 5805 5798 5791 5787 5785 5785 5785 5786 5786 5788 5781 5785 5780 5777 5775 5772 5770 5769 5765 5763 5763 5763 5762 5759 5760
5831 5823 5781 5846 5873 5842 5838 5770 5834 5870 5864 5850 5845 5840 5836 5835 5835 5833 5830 5828 5821 5816 5813 5810 5813 5805 5795 5791 5789 5790 5790 5789 5791 5790 5787 5787 5782 5778 5775 5774 5771 5769 5765 5763 5764 5763 5763 5762 5762
5791 5772 5797 5836 5884 5877 5857 5804 5833 5876 5864 5852 5848 5844 5840 5838 5838 5837 5835 5834 5829 5824 5817 5814 5810 5808 5802 5797 5795 5794 5793 5789 5793 5787 5786 5786 5781 5779 5776 5775 5771 5767 5766 5765 5765 5763 5763 5761 5763
5776 5753 5792 5800 5892 5892 5882 5864 5875 5875 5870 5859 5853 5851 5846 5842 5840 5841 5838 5837 5837 5832 5825 5820 5815 5810 5806 5799 5792 5790 5787 5788 5791 5789 5787 5784 5782 5779 5776 5774 5771 5767 5767 5767 5768 5766 5768 5766 5766
5831 5809 5807 5849 5903 5889 5883 5885 5877 5883 5876 5866 5863 5857 5853 5848 5852 5850 5842 5840 5841 5835 5827 5819 5814 5809 5803 5791 5778 5780 5781 5784 5783 5785 5785 5780 5779 5778 5776 5774 5771 5771 5769 5770 5768 5767 5766 5766 5770
5853 5850 5854 5904 5903 5896 5891 5889 5893 5885 5883 5879 5870 5867 5863 5859 5856 5852 5847 5845 5840 5836 5829 5821 5817 5811 5807 5794 5796 5788 5784 5790 5786 5785 5781 5778 5776 5774 5773 5773 5772 5770 5770 5769 5769 5767 5765 5766 5770
5893 5884 5887 5885 5894 5903 5893 5873 5875 5875 5882 5884 5884 5880 5875 5868 5861 5855 5851 5849 5846 5838 5832 5826 5821 5818 5814 5806 5801 5794 5784 5789 5782 5780 5778 5775 5773 5772 5773 5774 5773 5771 5772 5770 5770 5769 5765 5762 5765
5867 5904 5899 5882 5869 5852 5900 5848 5852 5836 5843 5877 5881 5884 5878 5874 5875 5867 5857 5853 5850 5844 5840 5834 5828 5823 5819 5811 5802 5793 5785 5781 5787 5785 5783 5779 5776 5775 5775 5775 5774 5775 5774 5771 5772 5771 5768 5765 5760
5871 5895 5886 5885 5869 5865 5870 5864 5857 5843 5802 5808 5878 5884 5888 5883 5879 5874 5867 5862 5860 5853 5844 5839 5831 5826 5822 5817 5812 5804 5798 5798 5796 5791 5785 5780 5781 5780 5778 5779 5780 5776 5775 5773 5773 5771 5768 5767 5765
5887 5875 5875 5876 5870 5829 5862 5866 5876 5859 5858 5853 5861 5867 5890 5894 5889 5884 5879 5872 5864 5862 5852 5845 5835 5828 5824 5820 5817 5812 5805 5799 5796 5792 5786 5785 5785 5783 5783 5782 5780 5778 5775 5774 5772 5769 5766 5764 5764
5870 5857 5824 5819 5826 5827 5883 5873 5890 5879 5893 5873 5865 5871 5891 5902 5895 5886 5880 5874 5866 5862 5856 5851 5840 5830 5827 5822 5818 5815 5811 5804 5798 5796 5793 5792 5788 5786 5782 5781 5778 5776 5774 5772 5770 5768 5766 5763 5761
5855 5857 5829 5798 5813 5839 5889 5864 5888 5892 5890 5910 5903 5897 5911 5908 5903 5896 5891 5883 5873 5869 5861 5855 5844 5834 5831 5826 5820 5816 5813 5808 5803 5802 5800 5796 5791 5788 5785 5781 5779 5774 5771 5769 5766 5763 5763 5761 5758
5844 5832 5868 5845 5859 5843 5862 5888 5909 5902 5883 5854 5920 5923 5915 5913 5911 5901 5895 5890 5881 5874 5866 5860 5849 5840 5835 5829 5823 5817 5814 5809 5807 5804 5802 5798 5793 5787 5784 5780 5776 5772 5767 5765 5763 5760 5757 5755 5755
5849 5861 5827 5844 5804 5799 5836 5852 5867 5877 5869 5903 5918 5922 5913 5914 5916 5905 5899 5893 5888 5882 5873 5865 5855 5845 5839 5833 5827 5822 5817 5813 5808 5804 5798 5796 5790 5787 5781 5776 5772 5768 5764 5762 5760 5757 5754 5749 5746
5845 5832 5838 5842 5839 5818 5816 5844 5908 5890 5893 5896 5910 5910 5909 5905 5911 5908 5903 5899 5891 5886 5878 5868 5857 5848 5840 5834 5830 5825 5820 5815 5809 5804 5798 5793 5789 5782 5776 5771 5767 5764 5762 5760 5755 5752 5748 5743 5740
5863 5845 5851 5829 5815 5834 5830 5837 5909 5900 5910 5906 5902 5896 5902 5904 5910 5909 5903 5899 5892 5884 5880 5871 5860 5850 5845 5840 5832 5827 5822 5816 5810 5804 5798 5791 5781 5776 5771 5767 5764 5760 5757 5755 5750 5747 5743 5738 5734